Date String (YYYY-MM-DD hh:mm:ss) UTC,Instrument flags,absolute air pressure of the measurement (hPa),sample flow rate (lpm),inlet stack bypass flow (lpm),air temperature of the measurement (°C),ambient temperature measured by the external sensor (°C),aerosol sample conditioner tube jacket temperature (°C),OPC LED temperature (°C),internal box temperature (°C),relative humidity of the measurement (%),span deviation,mass concentration of particles derived from Lorenz-Mie calculation of OPC scattering (μg/m³),mass concentration of particles derived from Lorenz-Mie calculation of OPC scattering (μg/m³),mass concentration of particles derived from Lorenz-Mie calculation of OPC scattering (μg/m³)
DateTimeUTC,F1_M11,P_M11,Q1_M11,Q2_M11,T1_M11,T2_M11,T3_M11,T4_M11,T5_M11,U1_M11,ZSPAN_M11,X0_M11,X2_M11,X1_M11
2023-08-18 14:00:00,SystemResetWarning,0830.3,4.99,000.00,028.4,027.0,000.0,036.8,030.2,33.3,0001.5,0023.60,0010.49,0008.73
2023-08-18 14:01:00,SystemResetWarning,0830.2,4.99,000.00,028.4,025.9,000.0,036.7,030.0,32.5,0001.9,0023.74,0010.48,0008.68
2023-08-18 14:02:00,SystemResetWarning,0830.2,5.00,000.00,028.3,024.7,000.0,036.6,029.8,32.8,0002.0,0024.90,0010.48,0008.65
2023-08-18 14:03:00,SystemResetWarning,0830.2,5.01,000.00,028.3,024.6,000.0,036.5,029.7,33.1,0001.8,0025.02,0010.48,0008.65
2023-08-18 14:04:00,SystemResetWarning,0830.1,5.01,000.00,028.2,024.9,000.0,036.6,029.6,32.7,0001.6,0023.85,0010.46,0008.64
2023-08-18 14:05:00,SystemResetWarning,0830.1,5.00,000.00,028.2,025.3,000.0,036.6,029.7,33.5,0002.1,0023.98,0010.43,0008.63
2023-08-18 14:06:00,SystemResetWarning,0830.2,5.01,000.00,028.2,025.6,000.0,036.6,029.7,33.3,0001.9,0024.13,0010.41,0008.63
2023-08-18 14:07:00,SystemResetWarning,0830.2,4.99,000.00,028.2,026.0,000.0,036.6,029.8,32.9,0001.7,0024.56,0010.46,0008.66
2023-08-18 14:08:00,SystemResetWarning,0830.2,5.00,000.00,028.2,026.2,000.0,036.7,029.9,33.1,0001.5,0023.86,0010.42,0008.66
2023-08-18 14:09:00,SystemResetWarning,0830.2,5.01,000.00,028.2,026.5,000.0,036.7,030.0,32.6,0001.4,0023.65,0010.41,0008.69
2023-08-18 14:10:00,SystemResetWarning,0830.2,5.00,000.00,028.3,026.7,000.0,036.7,030.0,31.9,0001.4,0025.06,0010.49,0008.73
2023-08-18 14:11:00,SystemResetWarning,0830.2,4.99,000.00,028.3,026.9,000.0,036.7,030.1,32.9,0001.4,0027.55,0010.55,0008.77
2023-08-18 14:12:00,SystemResetWarning,0830.2,4.99,000.00,028.4,027.1,000.0,036.7,030.1,32.7,0001.4,0028.40,0010.68,0008.81
2023-08-18 14:13:00,SystemResetWarning,0830.2,4.99,000.00,028.4,026.3,000.0,036.7,030.0,32.8,0001.2,0027.61,0010.70,0008.82
2023-08-18 14:14:00,SystemResetWarning,0830.3,5.00,000.00,028.3,024.9,000.0,036.6,029.8,32.7,0001.3,0028.17,0010.71,0008.83
2023-08-18 14:15:00,SystemResetWarning,0830.2,5.00,000.00,028.3,024.6,000.0,036.5,029.7,32.6,0001.5,0028.22,0010.73,0008.84
2023-08-18 14:16:00,SystemResetWarning,0830.2,5.01,000.00,028.2,024.9,000.0,036.5,029.6,33.2,0001.5,0028.74,0010.83,0008.85
2023-08-18 14:17:00,SystemResetWarning,0830.2,5.00,000.00,028.2,025.2,000.0,036.6,029.7,34.2,0001.5,0029.07,0010.89,0008.85
2023-08-18 14:18:00,SystemResetWarning,0830.2,4.99,000.00,028.2,025.6,000.0,036.6,029.7,34.9,0001.2,0029.78,0010.88,0008.83
2023-08-18 14:19:00,SystemResetWarning,0830.3,5.00,000.00,028.2,025.9,000.0,036.6,029.8,33.8,0001.1,0030.01,0010.93,0008.84
2023-08-18 14:20:00,SystemResetWarning,0830.2,5.00,000.00,028.2,026.2,000.0,036.7,029.9,31.8,0000.9,0030.16,0010.90,0008.83
2023-08-18 14:21:00,SystemResetWarning,0830.3,4.99,000.00,028.3,026.5,000.0,036.7,030.0,31.8,0001.0,0029.03,0010.83,0008.82
2023-08-18 14:22:00,SystemResetWarning,0830.3,5.00,000.00,028.3,026.7,000.0,036.7,030.0,32.1,0000.8,0026.72,0010.77,0008.79
2023-08-18 14:23:00,SystemResetWarning,0830.3,5.00,000.00,028.3,026.7,000.0,036.7,030.1,32.7,0000.6,0025.50,0010.73,0008.79
2023-08-18 14:24:00,SystemResetWarning,0830.3,4.99,000.00,028.3,025.6,000.0,036.6,029.9,31.3,0000.4,0025.68,0010.74,0008.78
2023-08-18 14:25:00,SystemResetWarning,0830.2,5.00,000.00,028.3,024.6,000.0,036.5,029.7,30.8,0000.7,0025.09,0010.70,0008.76
2023-08-18 14:26:00,SystemResetWarning,0830.2,5.01,000.00,028.2,024.7,000.0,036.5,029.6,29.3,0000.8,0025.26,0010.68,0008.76
2023-08-18 14:27:00,SystemResetWarning,0830.2,5.02,000.00,028.2,025.0,000.0,036.5,029.6,31.4,0000.9,0024.55,0010.60,0008.75
2023-08-18 14:28:00,SystemResetWarning,0830.2,5.00,000.00,028.1,025.3,000.0,036.6,029.6,31.2,0000.8,0024.06,0010.58,0008.75
2023-08-18 14:29:00,SystemResetWarning,0830.3,4.99,000.00,028.1,025.7,000.0,036.6,029.7,31.0,0001.0,0023.85,0010.58,0008.76
2023-08-18 14:30:00,SystemResetWarning,0830.3,5.00,000.00,028.2,026.0,000.0,036.6,029.8,32.4,0001.2,0024.86,0010.61,0008.77
2023-08-18 14:31:00,SystemResetWarning,0830.3,5.01,000.00,028.2,026.3,000.0,036.6,029.9,31.3,0001.4,0025.90,0010.65,0008.79
2023-08-18 14:32:00,SystemResetWarning,0830.3,5.00,000.00,028.2,026.6,000.0,036.7,030.0,30.5,0001.5,0026.19,0010.71,0008.81
2023-08-18 14:33:00,SystemResetWarning,0830.3,5.00,000.00,028.3,026.7,000.0,036.7,030.0,30.1,0001.5,0026.53,0010.85,0008.86
2023-08-18 14:34:00,SystemResetWarning,0830.3,4.98,000.00,028.3,025.8,000.0,036.6,029.8,28.2,0001.8,0027.38,0010.92,0008.88
2023-08-18 14:35:00,SystemResetWarning,0830.3,5.00,000.00,028.2,024.6,000.0,036.5,029.6,28.7,0001.9,0027.23,0010.90,0008.92
2023-08-18 14:36:00,SystemResetWarning,0830.3,5.02,000.00,028.2,024.6,000.0,036.4,029.6,28.3,0001.6,0027.32,0010.98,0008.97
2023-08-18 14:37:00,SystemResetWarning,0830.3,5.01,000.00,028.1,024.9,000.0,036.4,029.5,28.4,0001.3,0027.59,0011.02,0009.00
2023-08-18 14:38:00,SystemResetWarning,0830.3,5.00,000.00,028.1,025.3,000.0,036.5,029.6,29.6,0001.4,0028.79,0010.99,0008.99
2023-08-18 14:39:00,SystemResetWarning,0830.3,4.99,000.00,028.1,025.6,000.0,036.5,029.7,29.9,0001.1,0028.12,0010.86,0008.97
2023-08-18 14:40:00,SystemResetWarning,0830.3,5.00,000.00,028.1,026.0,000.0,036.5,029.8,29.3,0001.9,0027.33,0010.80,0008.95
2023-08-18 14:41:00,SystemResetWarning,0830.3,5.00,000.00,028.1,026.3,000.0,036.6,029.8,29.2,0001.7,0026.20,0010.71,0008.92
2023-08-18 14:42:00,SystemResetWarning,0830.3,4.99,000.00,028.2,026.5,000.0,036.6,029.9,29.0,0001.5,0025.10,0010.66,0008.88
2023-08-18 14:43:00,SystemResetWarning,0830.3,4.99,000.00,028.2,026.7,000.0,036.6,030.0,26.9,0001.3,0025.06,0010.64,0008.84
2023-08-18 14:44:00,SystemResetWarning,0830.3,5.00,000.00,028.2,026.0,000.0,036.5,029.9,28.5,0001.5,0024.80,0010.51,0008.80
2023-08-18 14:45:00,SystemResetWarning,0830.3,5.00,000.00,028.2,024.8,000.0,036.4,029.6,29.5,0001.2,0023.87,0010.42,0008.78
2023-08-18 14:46:00,SystemResetWarning,0830.2,5.00,000.00,028.1,024.6,000.0,036.4,029.5,30.4,0001.4,0023.45,0010.40,0008.74
2023-08-18 14:47:00,SystemResetWarning,0830.2,5.01,000.00,028.1,025.0,000.0,036.4,029.5,30.3,0001.6,0022.45,0010.31,0008.68
2023-08-18 14:48:00,SystemResetWarning,0830.2,5.00,000.00,028.0,025.3,000.0,036.4,029.5,32.8,0001.9,0021.79,0010.14,0008.57
2023-08-18 14:49:00,SystemResetWarning,0830.2,4.98,000.00,028.1,025.7,000.0,036.5,029.6,34.3,0001.9,0020.19,0010.03,0008.48
2023-08-18 14:50:00,SystemResetWarning,0830.2,5.00,000.00,028.1,026.0,000.0,036.5,029.8,32.1,0001.8,0020.19,0009.97,0008.40
2023-08-18 14:51:00,SystemResetWarning,0830.3,5.01,000.00,028.2,026.3,000.0,036.5,029.8,32.0,0001.4,0019.76,0009.85,0008.28
2023-08-18 14:52:00,SystemResetWarning,0830.3,5.00,000.00,028.2,026.3,000.0,036.5,029.9,31.6,0001.6,0018.78,0009.63,0008.11
2023-08-18 14:53:00,SystemResetWarning,0830.3,4.99,000.00,028.2,025.1,000.0,036.4,029.6,33.6,0001.6,0018.41,0009.41,0007.94
2023-08-18 14:54:00,SystemResetWarning,0830.2,4.99,000.00,028.1,024.4,000.0,036.4,029.4,35.1,0001.6,0017.24,0009.09,0007.72
2023-08-18 14:55:00,SystemResetWarning,0830.2,5.04,000.00,028.2,024.7,000.0,036.3,029.5,35.7,0001.2,0016.64,0008.83,0007.53
2023-08-18 14:56:00,SystemResetWarning,0830.3,4.98,000.00,028.3,025.0,000.0,036.4,029.6,30.5,0001.5,0016.64,0008.62,0007.34
2023-08-18 14:57:00,SystemResetWarning,0830.3,5.00,000.00,028.5,025.4,000.0,036.4,029.7,33.9,0001.2,0017.01,0008.35,0007.13
2023-08-18 14:58:00,SystemResetWarning,0830.3,5.01,000.00,028.6,025.7,000.0,036.5,029.8,34.2,0000.9,0016.76,0008.09,0006.94
2023-08-18 14:59:00,SystemResetWarning,0830.3,5.00,000.00,028.7,026.1,000.0,036.6,029.9,33.2,0000.5,0016.07,0007.90,0006.81
